ENDU

Bardufoss

Airport
ICAO code
ENDU
Summary
ICAO Region
EUR
ICAO Territory
Location

Bardufoss,

Elevation
252 ft
Coordinates
69° 3' 21" N , 18° 32' 25" E
KCC
Airport CFIT
Altimeter Temperature Error Correction
Airport GND
Aircraft Ground De/Anti Icing
Airport RE
Landing on Contaminated Runways
Airport WX
Low Level Turbulence
Metar
ENDU 201550Z 12007KT CAVOK 02/M15 Q1023 RMK WIND 1100FT 07006KT WIND 2200FT 15004KT

Description

Civil/Military (RNoAF) airport serving the Målselvdalen valley region of northern Norway.

Climatology

Subarctic climate (Köppen climate classification Dfc) - Although not far from the coast, Bardufoss and Målselvdalen is known for a somewhat more continental climate, and hence, colder winters (but with less humidity and little wind) compared to the coastal areas.

Runways

Designator Length Width Surface Rops
10/28 2443 45 ASP Yes/Yes

Airport map

Aerial View

SKYbrary Partners:

Safety knowledge contributed by: